Showing default

COSMOS 2092, 20737

Orbit data source: Space-Track

COSMOS 2092, 20737 is a payload satellite owned by UNKS (CIS) in LEO that was launched on Wed, 08 Aug 1990 UTC via a TSIKLON-3 launch vehicle from the Plesetsk Missile And Space Complex (PKMTR). Payload-class satellites include a variety of spacecraft equipped with specific instruments for various scientific and technological missions. These include communications satellites like Starlink; space stations such as the ISS; scientific satellites like the Hubble; Earth observation satellites from companies like Planet Labs, Umbra, and HawkEye 360; GPS; miniature CubeSats for education and research; and military/defense satellites.

Loading next visibility...
Identifier
20737, 1990-070C
Orbit
LEO
Country
Flag of CISCIS
Related business
Manufacturer
NPO PM
Mission
Defense Communications
Bus & Motor
STRELA-3, Unknown motor
Mass
225 kg wet, 225 kg dry
Launch date (UTC)
1990-08-08 (36 years ago)
Launch vehicle
TSIKLON-3
Launch site
Plesetsk Missile And Space Complex (PKMTR)
Object type
Payload
Rocket body
Debris
Shape & HBR
Cyl, 0.8 m
Radar Cross Section
1.257 m², Large (>1 m²)

Expand to show TLE details & history
Last TLE update: 8 hours ago

TLE from 8 hours ago
0 COSMOS 2092
1 20737U 90070C   26126.58685708  .00000025  00000-0  77730-4 0  9994
2 20737  82.5688 332.4578 0003673 217.3157 169.2552 12.63349528648107
Epoch: 2026-05-06T14:05Z
TLE epoch observation values (Epoch: 2026-05-06T14:05:04.451Z)
Latitude
26.37041°
Longitude
-99.56681°
Altitude
1,415.026 km
Speed
7.154 km/s
True Right ascension
22h 24m 35s
True Declination
26° 14' 43"
Sunlit
Object was in daylight at epoch
Visualization orbit readout
Latitude
Unknown
Longitude
Unknown
Altitude
Unknown
Speed
Unknown
Apparent Right ascension
Unknown
Apparent Declination
Unknown
Sunlit
N/A
Visualization observer readout
Local Sidereal Time
06:11:58
Azimuth
Unknown
Elevation
Unknown
Doppler factor
Unknown
Orbital elements
Apogee altitude
1,409.328 km
Perigee altitude
1,403.61 km
Semi-major axis
7,784.606 km
Eccentricity
0.00037
Inclination
82.5688°
RAAN
332.4578°
Arg. of periapsis
217.3157°
True anomaly
169.26304°
Mean anomaly
169.2552°
Eccentric anomaly
169.25912°
Mean motion
3.16001 °/min
Orbital period
113.92 mins
BSTAR
0.00007773
Loading maneuver chart data...
Computing Atmospheric mass density...
Loading historical data...
Loading historical data...
Loading historical data...
Loading historical data...
Loading historical data...
Loading historical data...
Loading historical data...

Documentation

Showing up to 5 results
|